[[{"header":{"parameterUnit":"m.s-1","parameterCategory":1,"la1":30.2991,"la2":30.254,"lo1":-89.0895,"lo2":-89.0444,"dy":0.0017,"dx":0.0017,"nx":28,"ny":28,"refTime":"2026-01-10T09:00:00:Z","depth":0,"parameterNumber":2,"parameterNumberName":"U-component_of_WINDS"},"data":[0,0,0,0,0,0,0,0,0,0,0,0,0,0,0,0,0,0,0,0,0,0,0,0,0,0,0,0,0,0,0,0,0,0,0,0,0,0,0,0,0,0,0,0,0,0,0,0,0,0,0,0,0,0,0,0,0,0,0.2187,0.2187,0,0.2262,0.2263,0.2264,0.2288,0.2288,0.2287,0.2287,0.2366,0.2369,0.2371,0,0,0,0,0,0,0,0,0,0,0,0,0,0.2064,0.2066,0.2186,0.2187,0.2188,0.2262,0.2263,0.2264,0.2288,0.2288,0.2287,0.2287,0.2366,0.2368,0.2371,0,0,0,0,0,0,0,0,0,0,0,0,0,0.2126,0.2067,0.2186,0.2209,0.2212,0.2262,0.2263,0.2264,0.2288,0.2288,0.2287,0.2287,0.2365,0.2368,0.2372,0.2405,0,0,0.2383,0.2385,0,0,0,0,0,0,0,0,0.2123,0.2131,0.2205,0.2208,0.2211,0.2265,0.2249,0.2312,0.2288,0.2259,0.2287,0.2286,0.2333,0.2339,0.2355,0.2409,0.2412,0.2383,0.2386,0.2387,0.2388,0,0,0,0,0,0,0,0.2119,0.2128,0.2217,0.2206,0.221,0.2216,0.2224,0.2261,0.2298,0.2262,0.2264,0.2272,0.2335,0.2351,0.2357,0.2413,0.2383,0.2386,0.2389,0.239,0.2498,0.2499,0,0,0,0,0,0,0.211,0.2124,0.2214,0.2219,0.2165,0.2219,0.2228,0.2248,0.2298,0.2305,0.2273,0.2273,0.2345,0.2353,0.236,0.2402,0.2387,0.2391,0.2393,0.2498,0.2498,0.2499,0,0,0,0,0,0,0.2107,0.2118,0.2211,0.2172,0.2184,0.2221,0.2244,0.225,0.2267,0.2306,0.2313,0.2283,0.2345,0.2355,0.2393,0.2405,0.2392,0.2396,0.2497,0.2498,0.2499,0.2487,0,0,0,0,0,0,0.2104,0.2117,0.2129,0.2172,0.2186,0.2243,0.2245,0.2252,0.2273,0.2274,0.2317,0.2324,0.2345,0.2388,0.2397,0.241,0.2398,0.2496,0.2497,0.2498,0.2487,0.2488,0.2488,0,0,0,0,0,0.2099,0.2124,0.213,0.2141,0.2203,0.2244,0.2252,0.2276,0.2273,0.2287,0.2312,0.2323,0.2402,0.2392,0.2402,0.2417,0.2495,0.2497,0.2498,0.2486,0.2487,0.2488,0,0,0,0,0,0,0.2082,0.213,0.2137,0.2176,0.2205,0.2248,0.2265,0.2276,0.2307,0.2307,0.2336,0.2345,0.2382,0.2403,0.2391,0.2451,0.2449,0.2453,0.2436,0.2438,0.2439,0.2433,0.2401,0,0,0,0,0,0.2083,0.2111,0.2151,0.2182,0.2196,0.2228,0.2247,0.2262,0.2294,0.2307,0.2335,0.2367,0.2399,0.2419,0.2451,0.2489,0.2499,0.2504,0.2505,0.2506,0.2509,0.2531,0.2534,0.2504,0.2504,0.2504,0,0,0.2084,0.2114,0.213,0.2179,0.2204,0.2233,0.2238,0.2269,0.2292,0.2312,0.235,0.2372,0.2409,0.2448,0.2466,0.2466,0.2519,0.2508,0.2508,0.2511,0.2533,0.2536,0.2538,0.2505,0.2505,0.2505,0,0,0.2103,0.2128,0.2156,0.218,0.2217,0.2238,0.2245,0.2286,0.2301,0.2339,0.2355,0.2382,0.2437,0.2462,0.2482,0.251,0.2521,0.2519,0.2524,0.2546,0.2548,0.255,0.256,0.2564,0.2522,0.2522,0.2522,0,0.2101,0.2145,0.2169,0.2199,0.222,0.2239,0.2268,0.2291,0.2336,0.2351,0.235,0.2419,0.2445,0.249,0.2496,0.2512,0.2521,0.2515,0.2546,0.2548,0.2551,0.2561,0.2564,0.2522,0.2522,0.2522,0.2522,0,0.2141,0.2172,0.219,0.2233,0.2256,0.2285,0.2314,0.2334,0.2348,0.2369,0.2408,0.244,0.2478,0.249,0.2503,0.2537,0.2536,0.254,0.2539,0.2553,0.2563,0.2567,0.2521,0.2521,0.2521,0.2522,0,0,0.2152,0.2207,0.2213,0.2233,0.2275,0.23,0.233,0.2367,0.2384,0.2415,0.2441,0.2487,0.249,0.2513,0.253,0.2548,0.2568,0.255,0.2551,0.2553,0.2608,0.2605,0.2609,0.2575,0.2576,0.2577,0.2605,0,0.2176,0.223,0.2252,0.2297,0.2326,0.2343,0.237,0.2399,0.2419,0.2447,0.247,0.2501,0.2504,0.2518,0.2537,0.2562,0.258,0.256,0.2601,0.2602,0.2592,0.2614,0.2611,0.2636,0.2609,0.2609,0.261,0,0.2212,0.2242,0.2289,0.2328,0.2341,0.2364,0.24,0.2426,0.2459,0.2473,0.2497,0.2513,0.2546,0.2541,0.2587,0.2573,0.2591,0.2606,0.2607,0.2613,0.2607,0.2621,0.2645,0.2649,0.2616,0.2616,0.2615,0,0.2216,0.2268,0.2303,0.232,0.2365,0.2381,0.2401,0.2434,0.2454,0.2486,0.2499,0.2534,0.2553,0.258,0.2604,0.2599,0.2648,0.2646,0.2661,0.266,0.2671,0.267,0.2699,0.2681,0.2681,0.2681,0.2681,0,0.2241,0.2269,0.2306,0.2327,0.2359,0.2384,0.2416,0.2437,0.2465,0.2492,0.2509,0.2534,0.2564,0.2592,0.2611,0.2647,0.2655,0.2667,0.2672,0.2666,0.2665,0.2679,0.2678,0.2682,0.2682,0.2681,0.2681,0,0.2251,0.2276,0.2316,0.2355,0.2366,0.2388,0.2422,0.2444,0.2465,0.2498,0.2507,0.254,0.2574,0.2601,0.2646,0.2659,0.2696,0.2701,0.2685,0.2687,0.2701,0.27,0.2741,0.2748,0.2724,0.2725,0.2725,0,0.2266,0.2288,0.233,0.2348,0.2368,0.2398,0.2419,0.2444,0.2465,0.2504,0.2522,0.2557,0.2587,0.2641,0.2669,0.2703,0.271,0.2721,0.2715,0.2708,0.2711,0.2709,0.2712,0.2723,0.2723,0.2723,0.2723,0,0.229,0.2301,0.2331,0.2365,0.2389,0.2417,0.2446,0.246,0.249,0.2514,0.2548,0.2571,0.2617,0.2652,0.2689,0.271,0.2722,0.2724,0.273,0.2724,0.2714,0.2721,0.2688,0.2724,0.2724,0.2724,0.2724,0.2724,0.2303,0.2324,0.2356,0.2389,0.2413,0.2439,0.2461,0.2484,0.2514,0.2552,0.2565,0.2602,0.2634,0.2685,0.2706,0.2735,0.2735,0.2743,0.2745,0.2747,0.2747,0.2709,0.2742,0.2742,0.2742,0.2742,0.2742,0,0.2329,0.235,0.238,0.2419,0.2444,0.2452,0.2484,0.2505,0.2536,0.2565,0.2594,0.2634,0.2668,0.2698,0.2734,0.2751,0.2757,0.276,0.2759,0.2764,0.2744,0.2736,0.2754,0.2754,0.2754,0.2754,0.2754,0.2754,0.2345,0.238,0.2395,0.2442,0.2464,0.2499,0.2517,0.2541,0.2564,0.2608,0.2636,0.2656,0.2685,0.2723,0.2755,0.2763,0.2775,0.2776,0.2786,0.2767,0.2765,0.2764,0.2756,0.2778,0.2778,0.2803,0.2803,0.2804]},{"header":{"parameterUnit":"m.s-1","parameterCategory":1,"la1":30.2991,"la2":30.254,"lo1":-89.0895,"lo2":-89.0444,"dy":0.0017,"dx":0.0017,"nx":28,"ny":28,"refTime":"2026-01-10T09:00:00:Z","depth":0,"parameterNumber":3,"parameterNumberName":"V-component_of_WINDS"},"data":[0,0,0,0,0,0,0,0,0,0,0,0,0,0,0,0,0,0,0,0,0,0,0,0,0,0,0,0,0,0,0,0,0,0,0,0,0,0,0,0,0,0,0,0,0,0,0,0,0,0,0,0,0,0,0,0,0,0,3.7316,3.7317,0,3.742,3.7421,3.7422,3.742,3.7418,3.7417,3.7416,3.7523,3.7527,3.7532,0,0,0,0,0,0,0,0,0,0,0,0,0,3.7117,3.712,3.7316,3.7317,3.7318,3.742,3.7421,3.7422,3.742,3.7418,3.7417,3.7415,3.7522,3.7527,3.7532,0,0,0,0,0,0,0,0,0,0,0,0,0,3.721,3.7121,3.7315,3.7329,3.7331,3.7419,3.7421,3.7423,3.742,3.7418,3.7416,3.7414,3.752,3.7526,3.7533,3.7614,0,0,3.7552,3.7555,0,0,0,0,0,0,0,0,3.7205,3.7217,3.7326,3.7328,3.7331,3.7405,3.739,3.7487,3.7421,3.7387,3.7416,3.7413,3.7486,3.7495,3.7519,3.7619,3.7624,3.7552,3.7556,3.7559,3.7561,0,0,0,0,0,0,0,3.7198,3.7213,3.7357,3.7327,3.7331,3.7331,3.7342,3.7409,3.7447,3.7389,3.739,3.7402,3.7487,3.7513,3.7521,3.7625,3.7552,3.7558,3.7562,3.7564,3.78,3.7802,0,0,0,0,0,0,3.7189,3.7208,3.7354,3.736,3.7261,3.7336,3.7348,3.7383,3.7446,3.7454,3.7404,3.7401,3.7503,3.7514,3.7525,3.7627,3.7559,3.7565,3.7568,3.7798,3.7801,3.7803,0,0,0,0,0,0,3.7185,3.7202,3.7349,3.7284,3.7303,3.7342,3.7381,3.7386,3.7413,3.7457,3.7464,3.7423,3.7502,3.7516,3.7592,3.7631,3.7568,3.7573,3.7795,3.7799,3.7802,3.783,0,0,0,0,0,0,3.7179,3.72,3.7231,3.7285,3.7306,3.7415,3.7383,3.739,3.7423,3.7421,3.7477,3.7484,3.7501,3.7583,3.7599,3.7638,3.7578,3.7791,3.7796,3.7801,3.7825,3.7834,3.7841,0,0,0,0,0,3.7172,3.7235,3.7233,3.725,3.7346,3.7417,3.7429,3.7447,3.7426,3.7458,3.7487,3.7482,3.7623,3.7591,3.7608,3.765,3.7789,3.7795,3.78,3.7822,3.7832,3.7841,0,0,0,0,0,0,3.7185,3.7242,3.724,3.7322,3.7365,3.7416,3.7457,3.7457,3.7506,3.7503,3.7523,3.7536,3.7613,3.7638,3.7602,3.7734,3.7704,3.7713,3.7714,3.7724,3.7732,3.7725,3.7584,0,0,0,0,0,3.7197,3.725,3.7296,3.7364,3.7386,3.7418,3.7449,3.7459,3.7504,3.7522,3.7556,3.7601,3.7655,3.7691,3.7743,3.7828,3.7842,3.7866,3.7873,3.788,3.7888,3.7938,3.795,3.7822,3.7822,3.7822,0,0,3.7223,3.7261,3.7293,3.7368,3.7402,3.7457,3.7433,3.7491,3.7533,3.7531,3.7606,3.7632,3.7683,3.7765,3.7803,3.7789,3.7926,3.7887,3.7891,3.7897,3.7945,3.7957,3.7968,3.7826,3.7825,3.7824,0,0,3.73,3.7332,3.7394,3.7428,3.748,3.7501,3.7516,3.7568,3.7585,3.766,3.7661,3.771,3.7803,3.784,3.7871,3.7962,3.7961,3.7978,3.802,3.8068,3.8078,3.8087,3.8123,3.8135,3.7986,3.7986,3.7986,0,3.7326,3.7409,3.7425,3.7485,3.7519,3.7519,3.7583,3.7615,3.7682,3.7706,3.7689,3.7807,3.7841,3.7932,3.7955,3.7979,3.7998,3.7973,3.8075,3.8084,3.8093,3.8127,3.814,3.7988,3.7988,3.7988,3.7988,0,3.744,3.7497,3.754,3.7605,3.7643,3.7704,3.7731,3.7768,3.7775,3.7798,3.7875,3.7916,3.7978,3.7999,3.8006,3.8093,3.8083,3.807,3.8042,3.8107,3.814,3.8153,3.7991,3.799,3.799,3.7989,0,0,3.7529,3.7602,3.7618,3.7648,3.7706,3.7751,3.7812,3.7872,3.7905,3.795,3.8004,3.8082,3.8071,3.8106,3.8117,3.8159,3.8233,3.8142,3.8144,3.816,3.8334,3.8345,3.836,3.8231,3.8233,3.8235,3.833,0,3.7614,3.7723,3.774,3.7837,3.7891,3.7892,3.7946,3.7988,3.8011,3.8061,3.8086,3.8143,3.8122,3.8144,3.8185,3.8215,3.8268,3.8208,3.8283,3.8286,3.8273,3.8376,3.8388,3.8476,3.8343,3.8345,3.8346,0,3.7728,3.7777,3.7879,3.7931,3.7954,3.8002,3.806,3.8107,3.8154,3.8168,3.8208,3.8214,3.8279,3.8245,3.8337,3.8295,3.8327,3.8346,3.835,3.836,3.8322,3.8392,3.8504,3.8518,3.8366,3.8364,3.8363,0,3.7786,3.7878,3.7951,3.7977,3.8038,3.8072,3.8099,3.8145,3.818,3.823,3.8254,3.8311,3.8343,3.8387,3.8409,3.8382,3.85,3.8467,3.8516,3.8515,3.8543,3.8541,3.8664,3.8558,3.8558,3.8557,3.8557,0,3.7881,3.7944,3.7979,3.8025,3.8096,3.8114,3.8185,3.8211,3.8251,3.8303,3.8307,3.8355,3.838,3.8432,3.845,3.8524,3.8538,3.8552,3.8557,3.8554,3.8553,3.8577,3.8573,3.8561,3.856,3.8559,3.8559,0,3.796,3.7985,3.8066,3.8117,3.8132,3.8182,3.8227,3.8272,3.8294,3.8359,3.8376,3.8411,3.8474,3.8499,3.8575,3.8587,3.8674,3.8672,3.8658,3.866,3.8708,3.8704,3.8854,3.8876,3.8752,3.8753,3.8754,0,3.802,3.8069,3.8126,3.816,3.8189,3.8244,3.8281,3.8301,3.8339,3.8398,3.8436,3.8498,3.8549,3.8649,3.8682,3.8741,3.8742,3.8791,3.8751,3.8748,3.8747,3.8745,3.8751,3.8799,3.88,3.8801,3.8802,0,3.8126,3.8136,3.8188,3.8246,3.8289,3.8335,3.838,3.8409,3.8436,3.8479,3.8542,3.8582,3.866,3.8722,3.8783,3.8812,3.8813,3.8813,3.8828,3.8828,3.8819,3.8827,3.8681,3.8811,3.881,3.8809,3.8809,3.8808,3.8199,3.8243,3.8291,3.835,3.8385,3.8428,3.8473,3.8501,3.8555,3.862,3.8628,3.8697,3.8745,3.8826,3.8858,3.8913,3.89,3.8921,3.8927,3.8933,3.8938,3.8807,3.8923,3.8923,3.8923,3.8923,3.8922,0,3.8307,3.8338,3.8392,3.8455,3.8502,3.8496,3.8546,3.8586,3.8646,3.869,3.8741,3.8815,3.8875,3.8913,3.8975,3.9012,3.9014,3.9028,3.9027,3.9034,3.8943,3.8926,3.9025,3.9025,3.9025,3.9025,3.9025,3.9025,3.837,3.8445,3.8461,3.8555,3.8585,3.8653,3.8682,3.8722,3.8757,3.884,3.889,3.8914,3.8957,3.9021,3.9077,3.9087,3.9111,3.9126,3.9136,3.9051,3.904,3.903,3.9014,3.913,3.9131,3.9223,3.9223,3.9224]}]]